Regional Weather Roundup
Issued by NWS Kansas City/Pleasant Hill, MO

Home | Current Version | Previous Version | Graphics & Text | Print | Product List | Glossary Off
Versions: 1 2 3 4 5 6 7 8 9 10 11 12 13 14 15 16 17 18 19 20 21 22 23 24 25 26 27 28

000
ASUS43 KEAX 230510
RWREAX

WEATHER ROUNDUP FOR EASTERN KANSAS AND NORTHWEST MISSOURI
NATIONAL WEATHER SERVICE KANSAS CITY/PLEASANT HILL MO
1200 AM CDT WED MAY 23 2018

KSZ040-057-103>105-MOZ028-029-037-043-230600-
...KANSAS CITY METROPOLITAN AREA...

CITY           SKY/WX    TMP DP  RH WIND       PRES   REMARKS
K.C. INTL      PTCLDY    70  63  78 SE7       30.04R
K.C. DOWNTOWN  CLOUDY    77  63  61 CALM      30.02R
LEES SUMMIT    CLOUDY    72  66  81 MISG      30.04S
OLATHE - IXD   CLOUDY    70  66  87 SE7       30.04S
OLATHE - OJC   PTCLDY    70  65  84 S5        30.03F
LAWRENCE       CLOUDY    69  65  86 SE3       30.02S

$$

MOZ001>008-011>017-020>025-030>033-038>040-044>046-053-054-230600-
...NORTHERN AND CENTRAL MISSOURI...

CITY           SKY/WX    TMP DP  RH WIND       PRES   REMARKS
ST. JOSEPH     CLOUDY    71  65  81 S3        30.02S
MOSBY          CLOUDY    66  63  88 CALM      30.04R
WARRENSBURG    CLOUDY    68  63  83 CALM      30.04S
WHITEMAN AFB   PTCLDY    69  63  79 SE5       30.00F
CLINTON        CLOUDY    66  64  94 CALM      30.04S
SEDALIA        CLOUDY    71  66  84 SE3       30.06S
WARSAW         NOT AVBL
CHILLICOTHE      N/A     68  61  78 CALM      30.05S
KIRKSVILLE     CLEAR     65  62  90 SE3       30.07S

$$

MOZ041-047>049-056>058-063>065-088>090-097-230600-
...EASTERN AND SOUTHERN MISSOURI...

CITY           SKY/WX    TMP DP  RH WIND       PRES   REMARKS
ST. LOUIS INTL MOCLDY    74  63  68 NE5       30.06S
SPIRIT OF STL  PTCLDY    68  66  93 CALM      30.05S
COLUMBIA       CLOUDY    70  63  78 E5        30.06S
JEFFERSON CITY PTCLDY    68  64  87 CALM      30.05R
ROLLA          CLOUDY    69  62  78 E6        30.07F
OSAGE BEACH    CLOUDY    68  64  87 E3        30.06S
SPRINGFIELD    CLOUDY    72  65  78 SE3       30.05S
JOPLIN         CLOUDY    72  66  81 SE3       30.03S
WEST PLAINS    PTCLDY    70  67  90 CALM      30.07S

$$

IAZ060-094-KSZ022-034>040-054-083-096-NEZ052-066-093-230600-
...KANSAS...SOUTHEAST NEBRASKA AND IOWA...

CITY           SKY/WX    TMP DP  RH WIND       PRES   REMARKS
TOPEKA         CLOUDY    71  68  90 CALM      30.02R
MANHATTAN      CLEAR     71  65  81 S3        30.00R
EMPORIA        CLEAR     70  65  84 S3        30.02R
CHANUTE        CLEAR     72  68  87 E5        30.03R
WICHITA        PTCLDY    74  68  81 SE9       30.00S
OMAHA          MOCLDY    74  63  68 S9        29.98S
LINCOLN        CLEAR     74  62  66 S9        29.98S
FALLS CITY     CLOUDY    73  63  70 S9        30.00S
LAMONI         PTCLDY    71  61  70 SE7       30.05R
DES MOINES     CLOUDY    73  63  70 SE9       30.03S

$$





USA.gov is the U.S. government's official web portal to all federal, state and local government web resources and services.